DIAMANT B-P4 DEB

Satellite information

Favourite Embed

Satellite Type and Status

DEBRISIN ORBIT

Key statistics

Satellite DIAMANT B-P4 DEB at a glance.

Uptime

18524

Days in orbit

Revolutions

≈ 13.9

Per day

Orbit

LEO

Low Earth Orbit

Inclination

49.8

Latest

Satellite identification and parameters

Extended collection of information and parameters for DIAMANT B-P4 DEB.

Object identification

Identified? True

Debris? True

Object name: DIAMANT B-P4 DEB

International designator: 1975-010E

Object number (NORAD): 7659

Object ID (CCSDS): 7659

Country: FRANCE (FR)

Current information (Y/N): Y

RCS size: MEDIUM

Orbital parameters

Period: 103.306 minutes

Inclination: 49.8163 deg

SMA: 7293.095 km

Apoapsis: 1050.624 km

Periapsis: 779.296 km

RAAN: 315.1802 deg

Eccentricy: 0.01860167

Argument of periapsis: 260.4319 deg

Mean anomaly: 97.5517 deg

Mean motion: 13.93910751 rev/day

Mean motion (dot): 0.00000487 rev/day2

B* drag term: 0.00041272837 1/REarth

Two-line elements (TLE)

Creation date: Oct. 25, 2025, 3:11 a.m.

Reference frame: TEME

Reference center: EARTH

Epoch: Oct. 24, 2025, 5:51 p.m. UTC

TLE line 0: 0 DIAMANT B-P4 DEB

TLE line 1: 1 07659U 75010E 25297.74387170 .00000487 00000-0 41273-3 0 9991

TLE line 2: 2 07659 49.8163 315.1802 0186017 260.4319 97.5517 13.93910751572500

Live tracking on map

Real-time ground track for satellite DIAMANT B-P4 DEB.

In-orbit conjunctions

A list of the most updated potential collisions computed for object DIAMANT B-P4 DEB.

Target Orbit TCA Probability of collision Miss distance Type
CZ-6A DEB LEO 2025-08-04 07:21:05 0.0001022407 361.0 (m) DEBRIS

Associated space launch

Passive French satellite dedicated to geodetic and geophysical studies

DIAMANT B-P4 DEB was lifted into orbit during the mission ‘Diamant BP4 | Starlette’, on board a Diamant BP4 space rocket.

The launch took place on Feb. 6, 1975, 4:35 p.m. from Diamant Launch Area.

For more information about the launch, click the button.

Launch to space Diamant BP4 | Starlette
Diamant BP4 | Starlette

Agency: N/A

Status: Launch Successful

Launch date: Feb. 6, 1975, 4:35 p.m. UTC

Rocket: Diamant BP4

Launch pad: Diamant Launch Area

Location: Guiana Space Centre, French Guiana

...

Latest news about this satellite

There are no fresh news available about this satellite. Check back as we update our databases every day.


Newsletter sign-up

Weekly statistics, charts and insights to help you stay on top of the space industry.